SCP
3 3 3 2 2 1 1 1 0 0 0 0 0 0 0 0 0 0 0 0 0 0 0 0 0 0 0 0 0 0 0 0 0 0 0 0 0 0 0 0 0 0 0
2 2 3 3 2 1 1 1 1 1 0 0 0 0 0 0 0 0 0 0 0 0 0 0 0 0 0 0 0 0 0 0 0 0 0 0 0 0 0 0 0 0 0
3 2 2 3 2 2 1 1 1 1 1 0 0 0 0 0 0 0 0 0 0 0 0 0 0 0 0 0 0 0 0 0 0 0 0 0 0 0 0 0 0 0 0
3 3 2 3 3 2 2 1 1 1 1 0 0 0 0 0 0 0 0 0 0 0 0 0 0 0 0 0 0 0 0 0 0 0 0 0 0 0 0 0 0 0 0
3 3 2 2 3 2 2 2 1 1 1 1 0 0 0 0 0 0 0 0 0 0 0 0 0 0 0 0 0 0 0 1 0 0 0 0 0 0 0 0 0 0 0
3 3 3 3 2 2 2 2 1 1 1 1 1 1 0 0 0 0 0 0 0 0 0 0 0 0 0 0 0 0 1 1 0 0 0 0 0 0 0 0 0 0 0
3 4 3 3 2 2 2 2 1 1 1 1 1 1 0 0 0 0 0 0 0 0 0 0 0 0 0 0 0 0 1 1 0 0 0 0 0 0 0 0 0 0 0
4 4 4 3 2 2 2 1 1 1 1 1 1 0 0 0 0 0 0 0 0 0 0 0 0 0 0 0 0 0 1 1 0 0 0 0 0 0 0 0 0 0 0
4 5 4 3 2 2 2 2 1 1 1 1 1 1 1 1 0 0 0 0 0 0 0 0 0 0 0 0 0 0 0 0 0 0 0 0 0 0 0 0 0 0 0
4 4 3 3 2 2 2 2 2 1 1 1 1 1 1 1 1 1 0 0 0 0 0 0 0 0 0 0 0 0 0 0 0 0 1 1 0 0 0 0 0 0 0
4 3 3 3 2 2 2 2 2 2 1 1 1 1 1 1 1 1 1 1 1 0 0 0 0 0 0 0 0 0 0 0 0 0 1 1 1 1 1 1 0 0 0
4 3 3 3 2 2 2 2 3 3 2 2 2 1 1 1 1 1 1 1 1 0 0 0 0 0 1 1 1 1 1 0 0 0 0 0 1 1 1 1 1 1 1
5 4 4 3 3 2 2 2 3 3 3 3 3 2 2 1 1 1 1 1 1 1 0 0 0 1 1 1 1 1 0 0 0 0 0 0 1 1 1 1 1 1 1
7 6 5 5 4 3 3 3 3 3 3 4 3 3 2 2 2 2 1 1 1 1 0 0 1 1 1 1 1 1 1 0 0 0 0 0 1 1 1 1 1 1 0
7 7 7 7 6 5 4 4 4 3 3 3 3 2 2 2 2 2 1 1 1 1 1 1 1 1 1 1 1 1 1 1 1 0 0 0 1 1 1 0 0 0 0
7 7 8 8 7 6 5 5 5 4 4 3 3 3 3 2 2 2 1 1 1 1 1 1 1 1 2 2 2 2 1 1 1 1 0 1 1 1 1 1 0 0 0
7 7 7 7 7 6 6 6 6 5 4 3 3 3 3 2 2 2 2 1 1 1 1 1 1 2 2 2 2 2 2 2 1 1 1 1 1 1 1 1 1 0 0
8 8 7 6 7 7 7 6 6 5 5 4 4 3 3 2 2 2 2 1 1 1 1 1 2 2 2 2 2 2 2 2 2 1 1 1 1 1 1 1 1 0 0
10 9 7 7 7 8 7 7 6 5 5 5 4 4 3 3 2 2 2 2 2 1 1 1 2 2 1 1 1 1 1 2 1 1 1 1 1 1 1 1 1 0 0
10 9 8 7 8 8 8 7 6 6 5 5 5 4 3 3 3 3 2 2 2 2 2 2 2 1 1 1 1 1 1 1 1 1 1 1 1 1 1 1 1 0 0
9 9 8 8 8 8 7 7 6 6 5 5 5 4 4 3 3 3 3 3 3 3 3 2 2 2 1 1 1 1 1 1 1 1 1 1 1 1 1 1 1 1 0
8 8 8 8 8 8 7 6 5 5 4 5 5 5 4 4 4 4 4 4 4 4 3 3 3 2 1 1 1 1 1 1 1 1 1 1 1 1 1 1 1 1 1
8 7 7 7 8 8 7 5 5 4 4 5 6 5 4 3 4 4 4 4 3 3 3 3 3 2 1 1 1 1 1 1 1 1 1 1 1 1 1 1 1 1 1
7 6 6 6 7 7 6 5 4 4 4 5 5 4 3 3 3 4 4 4 3 3 3 3 2 2 1 1 1 1 1 1 1 0 0 0 1 1 1 0 0 1 1
6 6 6 6 6 5 4 4 5 5 5 6 6 5 4 3 3 3 4 4 3 3 3 2 2 1 1 1 1 1 1 1 0 0 0 0 0 1 0 0 0 0 0
6 6 6 6 5 4 4 4 5 5 5 6 6 5 4 3 3 3 3 3 3 3 3 2 2 1 1 1 1 1 1 0 0 0 0 0 0 1 0 0 0 0 0
Wind_Speed
18 18 18 17 16 15 15 14 14 14 14 14 14 14 15 15 15 14 15 14 15 15 15 14 15 15 15 16 16 16 16 16 16 17 17 16 15 13 13 15 15 13 16
22 19 19 17 16 15 15 15 14 14 14 14 14 14 14 14 14 15 15 15 15 15 15 15 15 15 15 15 14 14 14 14 15 16 17 15 14 12 12 13 15 11 15
22 19 18 17 17 16 15 15 14 14 14 14 14 14 14 14 15 15 15 15 15 16 16 16 15 15 15 14 13 12 12 12 13 14 13 11 11 14 15 16 16 15 15
22 19 17 19 17 16 15 15 14 14 14 14 14 13 13 14 14 15 15 15 15 15 16 15 15 15 14 13 11 10 9 9 9 9 6 9 10 14 15 15 15 14 14
20 18 19 19 18 17 16 15 14 14 14 14 13 13 13 13 14 15 15 15 15 15 15 15 15 14 13 11 9 7 6 5 4 6 9 9 9 13 14 14 14 14 13
20 20 19 19 18 17 16 15 15 14 14 13 13 13 13 13 14 15 15 15 15 15 15 14 14 13 11 9 7 5 3 2 2 9 8 10 9 12 13 13 13 13 13
20 19 19 19 18 17 16 15 15 14 14 13 13 13 13 13 14 14 14 14 14 14 14 13 13 11 10 7 5 2 1 1 3 9 9 9 9 12 13 13 13 13 13
20 20 18 19 18 17 16 15 14 14 13 13 13 13 13 13 14 14 14 14 14 13 12 12 11 10 8 6 3 1 3 4 8 11 11 10 11 12 13 13 13 12 12
20 19 16 16 15 16 16 15 14 14 14 13 13 13 13 14 13 13 13 13 13 12 11 11 10 9 8 5 1 2 4 5 5 8 12 8 12 13 13 13 12 12 11
18 18 17 16 14 13 13 15 15 14 14 13 13 13 14 14 13 13 12 12 12 11 10 10 10 9 7 4 2 3 5 5 6 10 8 9 13 13 12 12 12 11 11
15 15 16 16 14 13 13 14 14 14 13 13 11 13 12 9 10 9 13 11 11 10 9 9 8 8 6 4 3 3 4 0 7 8 8 12 13 12 12 11 11 10 10
15 14 13 14 14 13 12 11 9 9 9 8 7 8 6 4 6 10 12 11 10 9 8 7 7 7 5 4 4 5 2 4 7 8 8 13 12 12 11 10 10 10 10
14 13 13 12 10 11 9 9 7 6 7 7 8 7 5 5 6 7 5 6 6 7 5 6 5 4 3 2 2 2 0 3 6 7 9 12 11 11 11 10 9 9 9
13 12 12 12 8 7 9 7 6 6 6 6 7 7 5 3 4 5 4 5 4 3 2 3 2 2 2 1 1 1 2 4 7 7 8 12 11 11 10 9 9 8 8
11 11 11 10 8 6 6 5 6 6 7 6 6 4 5 4 4 4 3 2 3 3 3 1 2 2 2 1 1 2 3 5 8 8 7 11 11 10 10 9 9 8 7
13 12 11 10 9 6 5 3 4 5 4 6 5 5 5 4 4 4 3 2 2 2 2 2 3 2 1 1 1 2 2 4 6 8 7 7 10 9 9 9 8 8 7
13 12 11 10 9 8 7 5 4 4 5 5 5 5 4 5 5 4 4 2 2 3 3 1 2 2 2 2 2 2 2 3 4 7 7 5 6 8 8 8 8 8 7
12 12 11 11 11 9 6 5 4 4 5 5 6 5 5 6 6 4 4 3 3 3 2 2 1 1 1 1 2 1 2 2 3 5 5 6 5 6 7 9 8 7 7
12 12 11 9 11 9 8 5 4 3 4 4 5 5 5 6 6 4 3 3 4 3 3 3 2 1 1 1 2 2 2 2 2 3 4 6 5 6 5 7 8 8 8
12 12 12 10 10 9 7 5 3 4 4 3 4 5 6 5 5 4 4 4 3 3 2 2 3 2 1 1 1 2 1 2 2 2 3 4 4 6 6 7 6 6 8
12 12 12 11 10 8 6 6 6 5 4 4 4 7 7 6 6 4 4 4 2 3 3 4 3 3 2 1 1 1 2 3 3 2 2 3 3 4 5 6 5 4 4
13 12 12 11 12 10 7 5 5 5 4 4 5 6 7 7 6 6 4 4 3 3 3 3 2 2 2 2 1 1 1 1 0 3 3 3 3 3 4 6 4 4 4
14 14 13 12 12 11 9 6 5 5 4 4 5 5 6 7 6 4 6 4 4 4 4 4 4 3 2 2 1 0 1 1 1 1 1 2 3 2 2 3 5 4 5
14 13 12 12 12 11 10 9 10 8 7 7 6 6 6 6 7 6 6 4 4 3 5 5 5 3 2 2 2 1 1 1 1 1 1 2 3 3 2 3 4 4 5
14 13 12 12 11 11 10 10 9 8 6 5 6 8 7 6 6 7 6 5 4 3 5 4 4 3 2 2 2 2 2 1 1 2 2 2 2 3 3 3 3 3 4
13 13 13 12 11 11 10 10 9 9 8 8 8 8 7 5 5 6 7 5 5 4 4 4 3 3 1 0 0 0 2 2 2 1 2 3 3 2 3 2 3 3 4
Wind_Direction
123 126 129 127 126 123 119 114 111 108 105 101 97 94 92 90 91 93 91 94 94 94 94 94 92 90 89 89 90 91 93 94 95 97 97 96 96 95 99 103 99 95 97
124 128 129 128 127 125 121 117 114 111 109 105 102 99 96 94 93 94 93 93 93 94 96 95 95 93 92 93 94 97 100 103 105 106 103 96 92 91 92 95 94 101 100
123 129 130 128 128 126 123 120 117 114 112 108 105 102 100 98 97 97 98 96 95 96 96 97 97 97 96 96 98 102 107 112 118 121 117 103 94 91 93 97 100 102 100
127 135 132 130 129 127 125 123 121 118 115 112 109 106 104 102 100 99 99 98 97 98 98 98 98 98 97 98 102 107 112 118 127 133 112 101 98 95 98 100 103 103 102
132 131 130 133 130 129 127 125 124 121 118 115 112 110 107 105 103 101 100 100 99 99 99 99 99 99 99 101 102 108 113 120 135 112 93 91 92 100 100 102 104 103 103
132 129 133 134 131 130 129 127 126 124 121 119 116 113 111 108 106 104 103 102 101 100 101 101 102 101 101 102 102 101 106 124 127 102 101 101 99 102 103 105 105 105 104
130 128 135 135 133 132 131 130 128 126 125 124 120 117 114 111 109 107 106 104 103 103 104 105 104 105 106 104 102 89 10 341 121 101 96 94 100 103 103 104 104 104 104
129 130 134 136 135 134 134 133 131 130 129 127 125 122 119 115 112 111 111 109 107 107 108 108 108 109 109 105 96 23 340 329 105 107 102 101 107 106 105 105 104 104 104
130 131 139 139 139 138 137 136 136 134 133 131 129 127 125 122 119 117 114 113 112 112 113 113 113 115 116 118 122 311 319 340 94 113 108 108 112 111 111 111 109 108 107
132 139 145 145 144 145 142 142 140 140 138 136 135 135 131 130 127 126 119 115 116 117 117 119 122 124 129 142 190 286 320 332 105 103 105 115 118 116 116 115 114 114 112
138 144 147 148 151 152 149 145 146 145 145 144 144 144 145 147 140 140 119 123 122 123 125 128 135 139 148 171 213 260 294 82 94 97 103 120 122 120 118 118 118 119 117
146 150 149 152 158 158 151 146 155 156 154 164 151 159 174 144 132 125 129 132 133 134 139 146 152 162 179 182 202 231 253 133 112 102 112 124 125 124 123 123 123 124 124
151 155 151 153 160 157 144 159 162 153 158 169 155 166 163 136 132 127 140 140 147 156 164 155 178 194 192 178 174 207 183 91 103 108 123 127 129 130 131 131 129 129 129
156 158 153 152 156 149 148 163 157 152 163 160 155 169 150 143 140 141 146 155 163 165 158 160 154 135 146 123 128 74 76 98 107 114 132 136 135 136 137 138 139 138 138
157 158 152 150 151 148 143 158 159 151 160 146 151 163 145 144 138 128 127 148 151 140 144 138 109 102 90 95 100 87 74 90 114 122 131 142 142 143 145 147 150 151 152
164 160 152 152 147 141 143 158 144 145 141 141 147 152 156 139 125 127 131 132 118 122 120 128 126 111 106 94 87 96 85 90 114 124 134 146 150 152 156 159 161 164 164
166 158 154 156 151 149 156 171 152 147 149 140 138 145 151 134 133 141 137 146 119 113 121 128 123 133 172 148 124 104 97 96 115 128 141 148 157 164 165 168 171 174 174
162 157 162 167 158 159 159 171 155 154 150 142 142 145 153 138 147 154 147 150 138 136 142 143 163 154 116 123 129 127 124 121 133 137 145 151 154 164 174 178 179 183 185
160 159 164 164 161 164 161 162 157 145 142 138 142 146 153 149 153 157 146 135 155 154 157 178 140 135 142 132 170 158 145 141 130 148 143 148 155 160 162 176 182 187 193
160 160 165 162 161 162 158 158 153 151 149 146 144 144 149 156 159 165 145 149 176 153 141 113 119 116 147 212 224 138 150 154 153 147 160 151 156 165 164 162 173 188 192
159 160 163 166 164 161 166 168 167 167 166 157 155 151 158 165 161 169 151 153 175 146 153 160 152 167 201 178 179 149 188 177 156 157 166 153 159 162 148 156 173 167 174
163 166 169 172 169 170 171 170 169 161 169 170 166 158 165 166 163 174 154 162 163 150 162 166 159 185 198 178 198 172 165 149 224 171 167 167 159 163 165 168 161 161 163
171 173 175 174 172 172 169 168 169 158 175 171 162 165 171 166 170 173 155 172 164 167 167 178 179 193 203 190 195 194 147 169 174 155 176 141 143 158 172 154 160 154 155
176 175 172 173 173 173 173 179 176 175 181 178 171 167 169 171 172 166 163 174 177 174 160 190 182 182 195 212 180 170 158 122 139 143 194 158 168 170 182 180 156 159 157
176 175 174 172 172 175 182 185 182 182 180 172 170 162 169 174 175 170 167 170 179 175 171 178 149 186 201 216 193 184 172 163 224 171 179 179 184 171 176 178 160 162 157
173 173 174 173 174 178 184 185 188 183 178 176 173 165 171 170 178 174 170 165 176 180 162 154 161 184 210 209 319 195 167 181 214 202 175 186 183 176 171 165 163 166 171